Time,TemperatureF,DewpointF,PressureIn,WindDirection,WindDirectionDegrees,WindSpeedMPH,WindSpeedGustMPH,Humidity,HourlyPrecipIn,Conditions,Clouds,dailyrainin,SoftwareType,DateUTC
2013-07-02 00:05:00,66.6,58.4,29.94,NNW,337,0.0,-999.0,75,0.00,,,0.00,open2300 v1.10,2013-07-02 05:05:00,
2013-07-02 00:12:00,66.4,58.2,29.93,NNW,337,0.0,-999.0,75,0.00,,,0.00,open2300 v1.10,2013-07-02 05:12:00,
2013-07-02 00:19:00,66.2,58.4,29.93,NNW,337,0.0,-999.0,76,0.00,,,0.00,open2300 v1.10,2013-07-02 05:19:00,
2013-07-02 00:28:00,66.0,58.6,29.93,NNW,337,0.0,-999.0,77,0.00,,,0.00,open2300 v1.10,2013-07-02 05:28:00,
2013-07-02 00:34:00,65.8,58.4,29.93,NNW,337,0.0,-999.0,77,0.00,,,0.00,open2300 v1.10,2013-07-02 05:34:00,
2013-07-02 00:42:00,65.5,58.1,29.94,NNW,337,0.0,-999.0,77,0.00,,,0.00,open2300 v1.10,2013-07-02 05:42:00,
2013-07-02 00:49:00,65.3,57.9,29.94,NNW,337,0.0,-999.0,77,0.00,,,0.00,open2300 v1.10,2013-07-02 05:49:00,
2013-07-02 00:57:00,64.9,57.9,29.94,NNW,337,0.0,-999.0,78,0.00,,,0.00,open2300 v1.10,2013-07-02 05:57:00,
2013-07-02 01:07:00,64.6,57.9,29.93,NNW,337,0.0,-999.0,79,0.00,,,0.00,open2300 v1.10,2013-07-02 06:07:00,
2013-07-02 01:12:00,64.2,57.6,29.93,NNW,337,0.0,-999.0,79,0.00,,,0.00,open2300 v1.10,2013-07-02 06:12:00,
2013-07-02 01:19:00,64.2,57.9,29.93,NNW,337,0.0,-999.0,80,0.00,,,0.00,open2300 v1.10,2013-07-02 06:19:00,
2013-07-02 01:28:00,64.0,57.7,29.93,NNW,337,0.0,-999.0,80,0.00,,,0.00,open2300 v1.10,2013-07-02 06:28:00,
2013-07-02 01:34:00,63.7,57.4,29.93,NNW,337,0.0,-999.0,80,0.00,,,0.00,open2300 v1.10,2013-07-02 06:34:00,
2013-07-02 01:42:00,63.3,57.0,29.93,NNW,337,0.0,-999.0,80,0.00,,,0.00,open2300 v1.10,2013-07-02 06:42:00,
2013-07-02 01:49:00,63.3,57.4,29.93,NNW,337,0.0,-999.0,81,0.00,,,0.00,open2300 v1.10,2013-07-02 06:49:00,
2013-07-02 01:57:00,63.1,57.5,29.93,NNW,337,0.0,-999.0,82,0.00,,,0.00,open2300 v1.10,2013-07-02 06:57:00,
2013-07-02 02:05:00,63.1,57.5,29.93,NNW,337,0.0,-999.0,82,0.00,,,0.00,open2300 v1.10,2013-07-02 07:05:00,
2013-07-02 02:12:00,63.0,57.7,29.93,NNW,337,0.0,-999.0,83,0.00,,,0.00,open2300 v1.10,2013-07-02 07:12:00,
2013-07-02 02:19:00,62.8,57.5,29.93,NNW,337,0.0,-999.0,83,0.00,,,0.00,open2300 v1.10,2013-07-02 07:19:00,
2013-07-02 02:27:00,62.6,57.7,29.92,NNW,337,0.0,-999.0,84,0.00,,,0.00,open2300 v1.10,2013-07-02 07:27:00,
2013-07-02 02:34:00,62.6,57.7,29.92,NNW,337,0.0,-999.0,84,0.00,,,0.00,open2300 v1.10,2013-07-02 07:34:00,
2013-07-02 02:42:00,62.6,58.0,29.92,NNW,337,0.0,-999.0,85,0.00,,,0.00,open2300 v1.10,2013-07-02 07:42:00,
2013-07-02 02:49:00,62.6,58.0,29.93,NNW,337,0.0,-999.0,85,0.00,,,0.00,open2300 v1.10,2013-07-02 07:49:00,
2013-07-02 02:57:00,62.4,57.8,29.92,NNW,337,0.0,-999.0,85,0.00,,,0.00,open2300 v1.10,2013-07-02 07:57:00,
2013-07-02 03:05:00,62.4,57.8,29.92,NNW,337,0.0,-999.0,85,0.00,,,0.00,open2300 v1.10,2013-07-02 08:05:00,
2013-07-02 03:13:00,62.2,57.7,29.92,NNW,337,0.0,-999.0,85,0.00,,,0.00,open2300 v1.10,2013-07-02 08:13:00,
2013-07-02 03:19:00,62.2,57.7,29.92,NNW,337,0.0,-999.0,85,0.00,,,0.00,open2300 v1.10,2013-07-02 08:19:00,
2013-07-02 03:27:00,62.1,57.8,29.92,NNW,337,0.0,-999.0,86,0.00,,,0.00,open2300 v1.10,2013-07-02 08:27:00,
2013-07-02 03:34:00,61.9,57.7,29.92,NNW,337,0.0,-999.0,86,0.00,,,0.00,open2300 v1.10,2013-07-02 08:34:00,
2013-07-02 03:42:00,61.9,57.7,29.92,NNW,337,0.0,-999.0,86,0.00,,,0.00,open2300 v1.10,2013-07-02 08:42:00,
2013-07-02 03:49:00,61.9,57.7,29.92,NNW,337,0.0,-999.0,86,0.00,,,0.00,open2300 v1.10,2013-07-02 08:49:00,
2013-07-02 03:58:00,61.9,57.7,29.92,NNW,337,0.0,-999.0,86,0.00,,,0.00,open2300 v1.10,2013-07-02 08:58:00,
2013-07-02 04:05:00,61.9,57.7,29.92,NNW,337,0.0,-999.0,86,0.00,,,0.00,open2300 v1.10,2013-07-02 09:05:00,
2013-07-02 04:13:00,61.9,57.7,29.92,NNW,337,0.0,-999.0,86,0.00,,,0.00,open2300 v1.10,2013-07-02 09:13:00,
2013-07-02 04:19:00,61.9,57.7,29.92,NNW,337,0.0,-999.0,86,0.00,,,0.00,open2300 v1.10,2013-07-02 09:19:00,
2013-07-02 04:28:00,62.1,58.2,29.93,NNW,337,0.0,-999.0,87,0.00,,,0.00,open2300 v1.10,2013-07-02 09:28:00,
2013-07-02 04:34:00,62.1,58.2,29.93,NNW,337,0.0,-999.0,87,0.00,,,0.00,open2300 v1.10,2013-07-02 09:34:00,
2013-07-02 04:43:00,62.1,58.2,29.93,NNW,337,0.0,-999.0,87,0.00,,,0.00,open2300 v1.10,2013-07-02 09:43:00,
2013-07-02 04:49:00,61.9,58.0,29.93,NNW,337,0.0,-999.0,87,0.00,,,0.00,open2300 v1.10,2013-07-02 09:49:00,
2013-07-02 04:57:00,61.9,58.0,29.94,NNW,337,0.0,-999.0,87,0.00,,,0.00,open2300 v1.10,2013-07-02 09:57:00,
2013-07-02 05:05:00,62.1,58.2,29.94,NNW,337,0.0,-999.0,87,0.00,,,0.00,open2300 v1.10,2013-07-02 10:05:00,
2013-07-02 05:13:00,61.9,58.0,29.94,NNW,337,0.0,-999.0,87,0.00,,,0.00,open2300 v1.10,2013-07-02 10:13:00,
2013-07-02 05:19:00,61.7,57.8,29.95,NNW,337,0.0,-999.0,87,0.00,,,0.00,open2300 v1.10,2013-07-02 10:19:00,
2013-07-02 05:28:00,61.7,57.8,29.95,NNW,337,0.0,-999.0,87,0.00,,,0.00,open2300 v1.10,2013-07-02 10:28:00,
2013-07-02 05:34:00,61.7,57.8,29.95,NNW,337,0.0,-999.0,87,0.00,,,0.00,open2300 v1.10,2013-07-02 10:34:00,
2013-07-02 05:42:00,61.5,57.6,29.96,NNW,337,0.0,-999.0,87,0.00,,,0.00,open2300 v1.10,2013-07-02 10:42:00,
2013-07-02 05:49:00,61.5,57.6,29.96,NNW,337,0.0,-999.0,87,0.00,,,0.00,open2300 v1.10,2013-07-02 10:49:00,
2013-07-02 05:58:00,61.5,57.6,29.96,NNW,337,0.0,-999.0,87,0.00,,,0.00,open2300 v1.10,2013-07-02 10:58:00,
2013-07-02 06:05:00,61.3,57.5,29.96,NNW,337,0.0,-999.0,87,0.00,,,0.00,open2300 v1.10,2013-07-02 11:05:00,
2013-07-02 06:12:00,61.5,58.0,29.96,NNW,337,0.0,-999.0,88,0.00,,,0.00,open2300 v1.10,2013-07-02 11:12:00,
2013-07-02 06:19:00,61.3,57.8,29.97,NNW,337,0.0,-999.0,88,0.00,,,0.00,open2300 v1.10,2013-07-02 11:19:00,
2013-07-02 06:28:00,61.3,57.8,29.97,NNW,337,0.0,-999.0,88,0.00,,,0.00,open2300 v1.10,2013-07-02 11:28:00,
2013-07-02 06:34:00,61.3,57.8,29.97,NNW,337,0.0,-999.0,88,0.00,,,0.00,open2300 v1.10,2013-07-02 11:34:00,
2013-07-02 06:42:00,61.5,58.0,29.98,NNW,337,0.0,-999.0,88,0.00,,,0.00,open2300 v1.10,2013-07-02 11:42:00,
2013-07-02 06:49:00,61.5,58.0,29.98,NNW,337,0.0,-999.0,88,0.00,,,0.00,open2300 v1.10,2013-07-02 11:49:00,
2013-07-02 06:58:00,61.9,58.3,29.98,NNW,337,0.0,-999.0,88,0.00,,,0.00,open2300 v1.10,2013-07-02 11:58:00,
2013-07-02 07:05:00,62.2,58.7,29.98,NNW,337,0.0,-999.0,88,0.00,,,0.00,open2300 v1.10,2013-07-02 12:05:00,
2013-07-02 07:13:00,62.4,58.9,29.98,NNW,337,0.0,-999.0,88,0.00,,,0.00,open2300 v1.10,2013-07-02 12:13:00,
2013-07-02 07:19:00,63.0,59.4,29.98,NNW,337,0.0,-999.0,88,0.00,,,0.00,open2300 v1.10,2013-07-02 12:19:00,
2013-07-02 07:27:00,63.5,59.9,29.98,NNW,337,0.0,-999.0,88,0.00,,,0.00,open2300 v1.10,2013-07-02 12:27:00,
2013-07-02 07:34:00,64.0,60.5,29.98,NNW,337,0.0,-999.0,88,0.00,,,0.00,open2300 v1.10,2013-07-02 12:34:00,
2013-07-02 07:43:00,64.8,61.2,29.98,NNW,337,0.0,-999.0,88,0.00,,,0.00,open2300 v1.10,2013-07-02 12:43:00,
2013-07-02 07:49:00,65.1,61.2,29.98,NNW,337,0.0,-999.0,87,0.00,,,0.00,open2300 v1.10,2013-07-02 12:49:00,
2013-07-02 07:58:00,65.8,61.8,29.98,NNW,337,0.0,-999.0,87,0.00,,,0.00,open2300 v1.10,2013-07-02 12:58:00,
2013-07-02 08:05:00,66.4,62.0,29.98,NNW,337,0.0,-999.0,86,0.00,,,0.00,open2300 v1.10,2013-07-02 13:05:00,
2013-07-02 08:13:00,66.9,62.2,29.98,NNW,337,0.0,-999.0,85,0.00,,,0.00,open2300 v1.10,2013-07-02 13:13:00,
2013-07-02 08:19:00,67.5,62.8,29.98,NNW,337,0.0,-999.0,85,0.00,,,0.00,open2300 v1.10,2013-07-02 13:19:00,
2013-07-02 08:28:00,68.2,63.2,29.98,NNW,337,0.0,-999.0,84,0.00,,,0.00,open2300 v1.10,2013-07-02 13:28:00,
2013-07-02 08:34:00,68.7,63.7,29.98,NNW,337,0.0,-999.0,84,0.00,,,0.00,open2300 v1.10,2013-07-02 13:34:00,
2013-07-02 08:43:00,69.4,63.7,29.99,SE,135,0.0,-999.0,82,0.00,,,0.00,open2300 v1.10,2013-07-02 13:43:00,
2013-07-02 08:49:00,69.6,63.5,29.99,SSE,157,0.0,-999.0,81,0.00,,,0.00,open2300 v1.10,2013-07-02 13:49:00,
2013-07-02 08:58:00,70.2,63.7,29.99,SSE,157,0.0,-999.0,80,0.00,,,0.00,open2300 v1.10,2013-07-02 13:58:00,
2013-07-02 09:05:00,70.7,63.5,29.99,SSE,157,0.0,-999.0,78,0.00,,,0.00,open2300 v1.10,2013-07-02 14:05:00,
2013-07-02 09:13:00,71.2,63.6,29.99,SSE,157,0.0,-999.0,77,0.00,,,0.00,open2300 v1.10,2013-07-02 14:13:00,
2013-07-02 09:19:00,71.4,63.4,30.00,SSE,157,0.0,-999.0,76,0.00,,,0.00,open2300 v1.10,2013-07-02 14:19:00,
2013-07-02 09:28:00,72.1,63.8,30.00,SSE,157,0.0,-999.0,75,0.00,,,0.00,open2300 v1.10,2013-07-02 14:28:00,
2013-07-02 09:34:00,72.3,63.6,30.00,SSE,157,0.0,-999.0,74,0.00,,,0.00,open2300 v1.10,2013-07-02 14:34:00,
2013-07-02 09:43:00,73.0,63.9,30.00,SSE,157,0.0,-999.0,73,0.00,,,0.00,open2300 v1.10,2013-07-02 14:43:00,
2013-07-02 09:49:00,73.6,64.1,30.00,SSE,157,0.0,-999.0,72,0.00,,,0.00,open2300 v1.10,2013-07-02 14:49:00,
2013-07-02 09:58:00,74.1,64.2,30.00,SSW,202,0.0,-999.0,71,0.00,,,0.00,open2300 v1.10,2013-07-02 14:58:00,
2013-07-02 10:05:00,74.7,63.8,30.00,WSW,247,0.0,-999.0,69,0.00,,,0.00,open2300 v1.10,2013-07-02 15:05:00,
2013-07-02 10:13:00,75.6,64.2,30.00,North,0,0.0,-999.0,68,0.00,,,0.00,open2300 v1.10,2013-07-02 15:13:00,
2013-07-02 10:19:00,75.9,64.2,30.00,WSW,247,0.0,-999.0,67,0.00,,,0.00,open2300 v1.10,2013-07-02 15:19:00,
2013-07-02 10:28:00,76.5,64.7,30.00,SSE,157,0.0,-999.0,67,0.00,,,0.00,open2300 v1.10,2013-07-02 15:28:00,
2013-07-02 10:34:00,77.2,64.9,29.99,NNE,22,0.0,-999.0,66,0.00,,,0.00,open2300 v1.10,2013-07-02 15:34:00,
2013-07-02 10:43:00,78.6,65.8,29.99,SSE,157,0.0,-999.0,65,0.00,,,0.00,open2300 v1.10,2013-07-02 15:43:00,
2013-07-02 10:49:00,79.9,66.6,29.99,SSE,157,0.0,-999.0,64,0.00,,,0.00,open2300 v1.10,2013-07-02 15:49:00,
2013-07-02 10:58:00,80.8,66.1,29.99,NW,315,0.0,-999.0,61,0.00,,,0.00,open2300 v1.10,2013-07-02 15:58:00,
2013-07-02 11:05:00,81.0,65.8,29.99,NNW,337,0.0,-999.0,60,0.00,,,0.00,open2300 v1.10,2013-07-02 16:05:00,
2013-07-02 11:13:00,80.8,65.6,30.00,SE,135,0.0,-999.0,60,0.00,,,0.00,open2300 v1.10,2013-07-02 16:13:00,
2013-07-02 11:19:00,80.2,65.6,29.99,SSE,157,0.0,-999.0,61,0.00,,,0.00,open2300 v1.10,2013-07-02 16:19:00,
2013-07-02 11:28:00,81.3,66.1,29.99,South,180,0.0,-999.0,60,0.00,,,0.00,open2300 v1.10,2013-07-02 16:28:00,
2013-07-02 11:34:00,81.3,65.1,30.00,SSE,157,0.0,-999.0,58,0.00,,,0.00,open2300 v1.10,2013-07-02 16:34:00,
2013-07-02 11:43:00,83.1,65.7,30.00,NW,315,0.0,-999.0,56,0.00,,,0.00,open2300 v1.10,2013-07-02 16:43:00,
2013-07-02 11:49:00,83.8,65.4,30.00,West,270,0.0,-999.0,54,0.00,,,0.00,open2300 v1.10,2013-07-02 16:49:00,
2013-07-02 11:58:00,83.3,63.8,30.00,North,0,0.0,-999.0,52,0.00,,,0.00,open2300 v1.10,2013-07-02 16:58:00,
2013-07-02 12:05:00,84.0,64.0,30.00,NW,315,0.0,-999.0,51,0.00,,,0.00,open2300 v1.10,2013-07-02 17:05:00,
2013-07-02 12:13:00,84.4,64.4,30.00,NNW,337,0.0,-999.0,51,0.00,,,0.00,open2300 v1.10,2013-07-02 17:13:00,
2013-07-02 12:19:00,84.2,63.0,30.00,NW,315,0.0,-999.0,49,0.00,,,0.00,open2300 v1.10,2013-07-02 17:19:00,
2013-07-02 12:28:00,83.7,63.7,30.00,SSE,157,0.0,-999.0,51,0.00,,,0.00,open2300 v1.10,2013-07-02 17:28:00,
2013-07-02 12:34:00,83.5,63.0,30.00,North,0,0.0,-999.0,50,0.00,,,0.00,open2300 v1.10,2013-07-02 17:34:00,
2013-07-02 12:43:00,83.3,62.8,30.00,West,270,0.0,-999.0,50,0.00,,,0.00,open2300 v1.10,2013-07-02 17:43:00,
2013-07-02 12:49:00,84.4,64.4,29.99,NNW,337,0.0,-999.0,51,0.00,,,0.00,open2300 v1.10,2013-07-02 17:49:00,
2013-07-02 12:58:00,83.5,63.0,30.00,NNW,337,0.0,-999.0,50,0.00,,,0.00,open2300 v1.10,2013-07-02 17:58:00,
2013-07-02 13:05:00,84.2,63.7,29.99,NNW,337,0.0,-999.0,50,0.00,,,0.00,open2300 v1.10,2013-07-02 18:05:00,
2013-07-02 13:13:00,85.3,63.4,29.99,NNE,22,0.0,-999.0,48,0.00,,,0.00,open2300 v1.10,2013-07-02 18:13:00,
2013-07-02 13:19:00,85.5,63.5,29.99,SE,135,0.0,-999.0,48,0.00,,,0.00,open2300 v1.10,2013-07-02 18:19:00,
2013-07-02 13:28:00,84.7,63.5,29.99,ENE,67,0.0,-999.0,49,0.00,,,0.00,open2300 v1.10,2013-07-02 18:28:00,
2013-07-02 13:34:00,85.6,63.7,29.99,NNW,337,0.0,-999.0,48,0.00,,,0.00,open2300 v1.10,2013-07-02 18:34:00,
2013-07-02 13:43:00,84.7,63.5,29.99,SSE,157,0.0,-999.0,49,0.00,,,0.00,open2300 v1.10,2013-07-02 18:43:00,
2013-07-02 13:49:00,84.6,63.4,29.99,SSE,157,0.0,-999.0,49,0.00,,,0.00,open2300 v1.10,2013-07-02 18:49:00,
2013-07-02 13:58:00,84.0,62.9,29.99,SSW,202,0.0,-999.0,49,0.00,,,0.00,open2300 v1.10,2013-07-02 18:58:00,
2013-07-02 14:05:00,83.1,62.6,29.99,SSE,157,0.0,-999.0,50,0.00,,,0.00,open2300 v1.10,2013-07-02 19:05:00,
2013-07-02 14:13:00,83.8,62.1,29.99,SW,225,0.0,-999.0,48,0.00,,,0.00,open2300 v1.10,2013-07-02 19:13:00,
2013-07-02 14:19:00,84.4,63.2,29.98,SE,135,0.0,-999.0,49,0.00,,,0.00,open2300 v1.10,2013-07-02 19:19:00,
2013-07-02 14:28:00,84.7,62.9,29.98,SSE,157,0.0,-999.0,48,0.00,,,0.00,open2300 v1.10,2013-07-02 19:28:00,
2013-07-02 14:34:00,84.4,62.6,29.98,WSW,247,0.0,-999.0,48,0.00,,,0.00,open2300 v1.10,2013-07-02 19:34:00,
2013-07-02 14:43:00,83.1,62.0,29.98,WNW,292,0.0,-999.0,49,0.00,,,0.00,open2300 v1.10,2013-07-02 19:43:00,
2013-07-02 14:49:00,83.3,62.2,29.98,West,270,0.0,-999.0,49,0.00,,,0.00,open2300 v1.10,2013-07-02 19:49:00,
2013-07-02 14:58:00,81.9,60.8,29.98,WSW,247,0.0,-999.0,49,0.00,,,0.00,open2300 v1.10,2013-07-02 19:58:00,
2013-07-02 15:05:00,82.0,61.6,29.98,WSW,247,0.0,-999.0,50,0.00,,,0.00,open2300 v1.10,2013-07-02 20:05:00,
2013-07-02 15:13:00,81.7,61.8,29.98,West,270,0.0,-999.0,51,0.00,,,0.00,open2300 v1.10,2013-07-02 20:13:00,
2013-07-02 15:19:00,81.9,61.9,29.98,SSE,157,0.0,-999.0,51,0.00,,,0.00,open2300 v1.10,2013-07-02 20:19:00,
2013-07-02 15:28:00,81.5,61.1,29.98,SSE,157,0.0,-999.0,50,0.00,,,0.00,open2300 v1.10,2013-07-02 20:28:00,
2013-07-02 15:34:00,81.5,61.6,29.98,SSE,157,0.0,-999.0,51,0.00,,,0.00,open2300 v1.10,2013-07-02 20:34:00,
2013-07-02 15:43:00,81.7,61.2,29.98,SW,225,0.0,-999.0,50,0.00,,,0.00,open2300 v1.10,2013-07-02 20:43:00,
2013-07-02 15:49:00,81.7,61.2,29.98,SSW,202,0.0,-999.0,50,0.00,,,0.00,open2300 v1.10,2013-07-02 20:49:00,
2013-07-02 15:58:00,81.7,61.8,29.98,NW,315,0.0,-999.0,51,0.00,,,0.00,open2300 v1.10,2013-07-02 20:58:00,
2013-07-02 16:05:00,81.7,61.8,29.97,South,180,0.0,-999.0,51,0.00,,,0.00,open2300 v1.10,2013-07-02 21:05:00,
2013-07-02 16:13:00,81.3,61.4,29.97,South,180,0.0,-999.0,51,0.00,,,0.00,open2300 v1.10,2013-07-02 21:13:00,
2013-07-02 16:19:00,81.3,61.4,29.97,South,180,0.0,-999.0,51,0.00,,,0.00,open2300 v1.10,2013-07-02 21:19:00,
2013-07-02 16:28:00,81.1,61.8,29.98,NW,315,0.0,-999.0,52,0.00,,,0.00,open2300 v1.10,2013-07-02 21:28:00,
2013-07-02 16:34:00,81.1,61.8,29.98,SSE,157,0.0,-999.0,52,0.00,,,0.00,open2300 v1.10,2013-07-02 21:34:00,
2013-07-02 16:43:00,81.1,61.8,29.97,SSE,157,0.0,-999.0,52,0.00,,,0.00,open2300 v1.10,2013-07-02 21:43:00,
2013-07-02 16:49:00,81.1,62.3,29.97,SSE,157,0.0,-999.0,53,0.00,,,0.00,open2300 v1.10,2013-07-02 21:49:00,
2013-07-02 16:58:00,80.8,62.0,29.97,SE,135,0.0,-999.0,53,0.00,,,0.00,open2300 v1.10,2013-07-02 21:58:00,
2013-07-02 17:05:00,80.6,61.8,29.97,SSE,157,0.0,-999.0,53,0.00,,,0.00,open2300 v1.10,2013-07-02 22:05:00,
2013-07-02 17:13:00,80.4,61.7,29.97,SSE,157,0.0,-999.0,53,0.00,,,0.00,open2300 v1.10,2013-07-02 22:13:00,
2013-07-02 17:19:00,80.4,61.7,29.97,South,180,0.0,-999.0,53,0.00,,,0.00,open2300 v1.10,2013-07-02 22:19:00,
2013-07-02 17:28:00,80.4,61.7,29.97,SW,225,0.0,-999.0,53,0.00,,,0.00,open2300 v1.10,2013-07-02 22:28:00,
2013-07-02 17:34:00,80.4,61.7,29.97,WSW,247,0.0,-999.0,53,0.00,,,0.00,open2300 v1.10,2013-07-02 22:34:00,
2013-07-02 17:43:00,80.1,61.3,29.97,South,180,0.0,-999.0,53,0.00,,,0.00,open2300 v1.10,2013-07-02 22:43:00,
2013-07-02 17:49:00,79.9,61.7,29.97,South,180,0.0,-999.0,54,0.00,,,0.00,open2300 v1.10,2013-07-02 22:49:00,
2013-07-02 17:58:00,79.9,61.7,29.97,SSW,202,0.0,-999.0,54,0.00,,,0.00,open2300 v1.10,2013-07-02 22:58:00,
2013-07-02 18:05:00,79.5,61.9,29.97,SSE,157,0.0,-999.0,55,0.00,,,0.00,open2300 v1.10,2013-07-02 23:05:00,
2013-07-02 18:13:00,79.2,61.6,29.97,SSE,157,0.0,-999.0,55,0.00,,,0.00,open2300 v1.10,2013-07-02 23:13:00,
2013-07-02 18:19:00,79.0,61.4,29.97,SSE,157,0.0,-999.0,55,0.00,,,0.00,open2300 v1.10,2013-07-02 23:19:00,
2013-07-02 18:28:00,78.8,61.2,29.97,SSE,157,0.0,-999.0,55,0.00,,,0.00,open2300 v1.10,2013-07-02 23:28:00,
2013-07-02 18:34:00,78.6,61.6,29.98,SSE,157,0.0,-999.0,56,0.00,,,0.00,open2300 v1.10,2013-07-02 23:34:00,
2013-07-02 18:43:00,78.4,61.9,29.98,SSE,157,0.0,-999.0,57,0.00,,,0.00,open2300 v1.10,2013-07-02 23:43:00,
2013-07-02 18:49:00,78.4,61.9,29.98,South,180,0.0,-999.0,57,0.00,,,0.00,open2300 v1.10,2013-07-02 23:49:00,
2013-07-02 18:58:00,78.1,61.6,29.98,SSE,157,0.0,-999.0,57,0.00,,,0.00,open2300 v1.10,2013-07-02 23:58:00,
2013-07-02 19:05:00,77.7,61.2,29.98,SSE,157,0.0,-999.0,57,0.00,,,0.00,open2300 v1.10,2013-07-03 00:05:00,
2013-07-02 19:13:00,77.5,61.6,29.98,SSE,157,0.0,-999.0,58,0.00,,,0.00,open2300 v1.10,2013-07-03 00:13:00,
2013-07-02 19:19:00,77.2,61.7,29.98,SSE,157,0.0,-999.0,59,0.00,,,0.00,open2300 v1.10,2013-07-03 00:19:00,
2013-07-02 19:28:00,76.6,61.7,29.98,SSE,157,0.0,-999.0,60,0.00,,,0.00,open2300 v1.10,2013-07-03 00:28:00,
2013-07-02 19:34:00,76.1,61.2,29.99,SSE,157,0.0,-999.0,60,0.00,,,0.00,open2300 v1.10,2013-07-03 00:34:00,
2013-07-02 19:43:00,75.4,61.0,29.99,SSE,157,0.0,-999.0,61,0.00,,,0.00,open2300 v1.10,2013-07-03 00:43:00,
2013-07-02 19:49:00,75.0,60.7,29.99,SSE,157,0.0,-999.0,61,0.00,,,0.00,open2300 v1.10,2013-07-03 00:49:00,
2013-07-02 19:58:00,74.3,60.8,29.99,SSE,157,0.0,-999.0,63,0.00,,,0.00,open2300 v1.10,2013-07-03 00:58:00,
2013-07-02 20:05:00,73.8,60.8,29.99,SSE,157,0.0,-999.0,64,0.00,,,0.00,open2300 v1.10,2013-07-03 01:05:00,
2013-07-02 20:13:00,73.2,60.7,30.00,SSE,157,0.0,-999.0,65,0.00,,,0.00,open2300 v1.10,2013-07-03 01:13:00,
2013-07-02 20:19:00,73.0,60.5,29.99,SSE,157,0.0,-999.0,65,0.00,,,0.00,open2300 v1.10,2013-07-03 01:19:00,
2013-07-02 20:28:00,72.3,60.7,30.00,SSE,157,0.0,-999.0,67,0.00,,,0.00,open2300 v1.10,2013-07-03 01:28:00,
2013-07-02 20:34:00,72.1,61.9,30.00,NE,45,0.0,-999.0,70,0.00,,,0.00,open2300 v1.10,2013-07-03 01:34:00,
2013-07-02 20:43:00,71.8,61.9,30.01,NE,45,0.0,-999.0,71,0.00,,,0.00,open2300 v1.10,2013-07-03 01:43:00,
2013-07-02 20:49:00,71.4,61.5,30.01,NE,45,0.0,-999.0,71,0.00,,,0.00,open2300 v1.10,2013-07-03 01:49:00,
2013-07-02 20:58:00,71.4,61.5,30.01,NE,45,0.0,-999.0,71,0.00,,,0.00,open2300 v1.10,2013-07-03 01:58:00,
2013-07-02 21:05:00,71.8,62.3,30.02,NE,45,0.0,-999.0,72,0.00,,,0.00,open2300 v1.10,2013-07-03 02:05:00,
2013-07-02 21:13:00,71.8,61.9,30.02,NE,45,0.0,-999.0,71,0.00,,,0.00,open2300 v1.10,2013-07-03 02:13:00,
2013-07-02 21:19:00,71.8,61.9,30.02,NE,45,0.0,-999.0,71,0.00,,,0.00,open2300 v1.10,2013-07-03 02:19:00,
2013-07-02 21:34:00,71.4,61.9,30.03,NE,45,0.0,-999.0,72,0.00,,,0.00,open2300 v1.10,2013-07-03 02:34:00,
2013-07-02 21:43:00,71.2,61.7,30.03,NE,45,0.0,-999.0,72,0.00,,,0.00,open2300 v1.10,2013-07-03 02:43:00,
2013-07-02 21:49:00,71.2,61.7,30.03,NE,45,0.0,-999.0,72,0.00,,,0.00,open2300 v1.10,2013-07-03 02:49:00,
2013-07-02 21:58:00,70.9,61.4,30.03,NE,45,0.0,-999.0,72,0.00,,,0.00,open2300 v1.10,2013-07-03 02:58:00,
2013-07-02 22:05:00,70.7,61.2,30.03,NE,45,0.0,-999.0,72,0.00,,,0.00,open2300 v1.10,2013-07-03 03:05:00,
2013-07-02 22:13:00,70.5,61.4,30.03,NE,45,0.0,-999.0,73,0.00,,,0.00,open2300 v1.10,2013-07-03 03:13:00,
2013-07-02 22:19:00,70.5,61.4,30.03,NE,45,0.0,-999.0,73,0.00,,,0.00,open2300 v1.10,2013-07-03 03:19:00,
2013-07-02 22:28:00,70.3,61.6,30.03,NE,45,0.0,-999.0,74,0.00,,,0.00,open2300 v1.10,2013-07-03 03:28:00,
2013-07-02 22:49:00,69.6,61.3,30.03,NE,45,0.0,-999.0,75,0.00,,,0.00,open2300 v1.10,2013-07-03 03:49:00,
2013-07-02 23:05:00,69.1,61.2,30.03,NE,45,0.0,-999.0,76,0.00,,,0.00,open2300 v1.10,2013-07-03 04:05:00,
2013-07-02 23:13:00,68.9,61.0,30.03,NE,45,0.0,-999.0,76,0.00,,,0.00,open2300 v1.10,2013-07-03 04:13:00,
2013-07-02 23:19:00,68.7,60.8,30.03,NE,45,0.0,-999.0,76,0.00,,,0.00,open2300 v1.10,2013-07-03 04:19:00,
2013-07-02 23:28:00,68.5,60.7,30.03,NE,45,0.0,-999.0,76,0.00,,,0.00,open2300 v1.10,2013-07-03 04:28:00,
2013-07-02 23:34:00,68.4,60.9,30.04,NE,45,0.0,-999.0,77,0.00,,,0.00,open2300 v1.10,2013-07-03 04:34:00,
2013-07-02 23:43:00,68.2,61.1,30.04,NE,45,0.0,-999.0,78,0.00,,,0.00,open2300 v1.10,2013-07-03 04:43:00,
2013-07-02 23:49:00,68.2,61.5,30.04,NE,45,0.0,-999.0,79,0.00,,,0.00,open2300 v1.10,2013-07-03 04:49:00,
2013-07-02 23:58:00,67.8,61.1,30.04,NE,45,0.0,-999.0,79,0.00,,,0.00,open2300 v1.10,2013-07-03 04:58:00,